DW2447 Weather Reports


Display with metric or nautical units.
time (UTC)temp
F
wind
direction
speed
MPH
gust
MPH
rain 1hr
in
rain 24hr
in
rain mn
in
humidity
%
barometer
mb
20260503211644 70 251 4.0 6.0 0.00 0.00 0.00 55 1017.5
20260503211139 70 232 2.0 3.0 0.00 0.00 0.00 53 1017.6
20260503210635 72 102 1.0 2.0 0.00 0.00 0.00 51 1017.5
20260503210132 72 88 1.0 1.0 0.00 0.00 0.00 46 1017.6
20260503205628 72 61 1.0 1.0 0.00 0.00 0.00 46 1017.6
20260503205125 72 56 1.0 2.0 0.00 0.00 0.00 45 1017.7
20260503204621 72 38 1.0 2.0 0.00 0.00 0.00 44 1017.8
20260503204119 70 81 0.0 0.0 0.00 0.00 0.00 45 1017.9
20260503203616 71 83 0.0 0.0 0.00 0.00 0.00 46 1017.7
20260503203113 72 92 0.0 1.0 0.00 0.00 0.00 44 1017.6
20260503202611 71 166 3.0 3.0 0.00 0.00 0.00 45 1017.8
20260503202108 71 160 3.0 3.0 0.00 0.00 0.00 46 1017.9
20260503201606 73 243 5.0 6.0 0.00 0.00 0.00 44 1018.1
20260503201103 73 94 1.0 1.0 0.00 0.00 0.00 43 1018.1
20260503200559 72 93 1.0 1.0 0.00 0.00 0.00 43 1018.3
20260503200056 73 145 1.0 2.0 0.00 0.00 0.00 43 1018.3
20260503195553 73 71 1.0 2.0 0.00 0.00 0.00 44 1018.2
20260503195050 72 120 3.0 3.0 0.00 0.00 0.00 43 1018.3
20260503194547 72 103 1.0 1.0 0.00 0.00 0.00 42 1018.5
20260503194047 71 40 0.0 1.0 0.00 0.00 0.00 46 1018.4
20260503193544 72 58 4.0 5.0 0.00 0.00 0.00 44 1018.4
20260503193039 74 53 1.0 1.0 0.00 0.00 0.00 43 1018.7
20260503192536 73 88 1.0 1.0 0.00 0.00 0.00 43 1018.9
20260503192031 72 66 1.0 1.0 0.00 0.00 0.00 45 1018.8
20260503191528 69 94 0.0 1.0 0.00 0.00 0.00 48 1019.0
20260503191025 69 39 1.0 2.0 0.00 0.00 0.00 52 1019.3
20260503190522 70 71 1.0 1.0 0.00 0.00 0.00 48 1019.3
20260503190019 71 79 0.0 0.0 0.00 0.00 0.00 47 1019.2
20260503185515 70 137 1.0 2.0 0.00 0.00 0.00 46 1019.5
20260503185015 71 32 3.0 3.0 0.00 0.00 0.00 45 1019.4
20260503184512 71 346 2.0 5.0 0.00 0.00 0.00 45 1019.6
20260503184008 70 62 3.0 3.0 0.00 0.00 0.00 48 1019.7
20260503183505 70 64 1.0 1.0 0.00 0.00 0.00 49 1019.9
20260503183002 69 86 0.0 0.0 0.00 0.00 0.00 51 1019.7
20260503182501 70 79 0.0 0.0 0.00 0.00 0.00 49 1020.0
20260503181958 70 60 1.0 1.0 0.00 0.00 0.00 48 1020.0
20260503181455 73 70 1.0 1.0 0.00 0.00 0.00 47 1019.9
20260503180950 71 160 4.0 5.0 0.00 0.00 0.00 45 1019.9
20260503180449 72 117 1.0 1.0 0.00 0.00 0.00 45 1019.8
20260503175945 70 55 2.0 2.0 0.00 0.00 0.00 50 1020.1
20260503175444 71 70 0.0 0.0 0.00 0.00 0.00 47 1019.9
20260503174939 71 83 0.0 1.0 0.00 0.00 0.00 48 1019.9
20260503174437 69 71 1.0 1.0 0.00 0.00 0.00 48 1019.9
20260503173932 70 76 1.0 1.0 0.00 0.00 0.00 49 1020.0
20260503173428 69 86 0.0 0.0 0.00 0.00 0.00 50 1020.0
20260503172925 69 74 1.0 2.0 0.00 0.00 0.00 48 1020.1
20260503172423 68 69 1.0 1.0 0.00 0.00 0.00 50 1020.0
20260503171919 68 72 1.0 1.0 0.00 0.00 0.00 50 1020.2
20260503171416 69 70 1.0 1.0 0.00 0.00 0.00 49 1020.2
20260503170913 69 80 0.0 1.0 0.00 0.00 0.00 48 1020.5
20260503170409 69 262 3.0 3.0 0.00 0.00 0.00 47 1020.3
20260503150802 66 83 1.0 2.0 0.00 0.00 0.00 58 1020.9
20260503150257 66 101 1.0 1.0 0.00 0.00 0.00 59 1020.8
20260503140222 63 86 2.0 2.0 0.00 0.00 0.00 69 1020.5
20260503131152 59 78 1.0 1.0 0.00 0.00 0.00 86 1020.4
20260503130649 58 84 1.0 1.0 0.00 0.00 0.00 91 1020.5
20260503130147 57 88 0.0 1.0 0.00 0.00 0.00 97 1020.5
20260503120112 51 71 0.0 0.0 0.00 0.00 0.00 99 1020.1
20260503110539 46 71 0.0 0.0 0.00 0.00 0.00 99 1019.3
20260503090426 47 71 0.0 0.0 0.00 0.00 0.00 99 1017.9
20260503081352 48 72 0.0 0.0 0.00 0.00 0.00 99 1017.7
20260503080849 48 72 0.0 0.0 0.00 0.00 0.00 99 1017.8
20260503080346 48 72 0.0 0.0 0.00 0.00 0.00 99 1017.5
20260503072823 49 72 0.0 0.0 0.00 0.00 0.00 99 1017.3
20260503072320 49 72 0.0 0.0 0.00 0.00 0.00 99 1017.3
20260503071816 49 72 0.0 0.0 0.00 0.00 0.00 99 1017.1
20260503071314 49 72 0.0 0.0 0.00 0.00 0.00 99 1017.2
20260503070809 49 71 0.0 0.0 0.00 0.00 0.00 99 1017.4
20260503070308 49 71 0.0 1.0 0.00 0.00 0.00 99 1017.2
20260503060227 50 71 0.0 0.0 0.00 0.00 0.00 99 1017.1
20260503054714 50 71 0.0 0.0 0.00 0.00 0.00 99 1017.2
20260503054211 50 71 0.0 0.0 0.00 0.00 0.00 99 1017.1
20260503053709 51 71 0.0 0.0 0.00 0.00 0.00 99 1017.1
20260503053207 51 71 0.0 0.0 0.00 0.00 0.00 99 1017.0
20260503052703 51 71 0.0 0.0 0.00 0.00 0.00 99 1016.9
20260503052200 51 71 0.0 0.0 0.00 0.00 0.00 99 1017.1
20260503051655 51 71 0.0 0.0 0.00 0.00 0.00 99 1017.0
20260503051153 51 71 0.0 0.0 0.00 0.00 0.00 99 1016.9
20260503050649 51 71 0.0 0.0 0.00 0.00 0.00 99 1016.9
20260503050146 51 71 0.0 0.0 0.00 0.00 0.00 99 1016.9
20260503045643 51 71 0.0 0.0 0.00 0.00 0.00 99 1016.7
20260503045140 51 71 0.0 0.0 0.00 0.00 0.00 99 1016.6
20260503044637 51 71 0.0 0.0 0.00 0.00 0.00 99 1016.8
20260503044135 51 71 0.0 0.0 0.00 0.00 0.00 99 1016.4
20260503043631 52 71 0.0 0.0 0.00 0.00 0.00 99 1016.3
20260503043128 52 71 0.0 0.0 0.00 0.00 0.00 99 1016.5
20260503042625 52 71 0.0 0.0 0.00 0.00 0.00 99 1016.5
20260503042120 52 71 0.0 0.0 0.00 0.00 0.00 99 1016.5
20260503041617 52 71 0.0 0.0 0.00 0.00 0.00 99 1016.2
20260503041115 52 72 0.0 0.0 0.00 0.00 0.00 99 1016.0
20260503040612 52 71 0.0 0.0 0.00 0.00 0.00 99 1016.4
20260503040110 52 71 0.0 0.0 0.00 0.00 0.00 99 1016.3
20260503035606 52 71 0.0 0.0 0.00 0.00 0.00 99 1016.2
20260503035104 52 71 0.0 0.0 0.00 0.00 0.00 99 1016.2
20260503034601 52 72 0.0 0.0 0.00 0.00 0.00 99 1016.1
20260503034058 52 72 0.0 0.0 0.00 0.00 0.00 99 1016.0
20260503033555 52 71 0.0 0.0 0.00 0.00 0.00 99 1016.1
20260503033053 52 73 0.0 0.0 0.00 0.00 0.00 99 1015.9
20260503032551 53 74 0.0 0.0 0.00 0.00 0.00 99 1015.7
20260503032049 52 74 0.0 0.0 0.00 0.00 0.00 99 1015.8
20260503031546 53 74 0.0 0.0 0.00 0.00 0.00 99 1015.7
20260503031043 53 74 0.0 0.0 0.00 0.00 0.00 99 1015.7
20260503030539 53 74 0.0 0.0 0.00 0.00 0.00 99 1015.5
20260503030037 53 74 0.0 0.0 0.00 0.00 0.00 99 1015.6
20260503025533 53 74 0.0 0.0 0.00 0.00 0.00 99 1015.4
20260503025031 53 74 0.0 0.0 0.00 0.00 0.00 99 1015.2
20260503024527 53 78 0.0 0.0 0.00 0.00 0.00 99 1015.1
20260503024025 54 75 0.0 0.0 0.00 0.00 0.00 98 1015.0
20260503023521 54 75 0.0 0.0 0.00 0.00 0.00 98 1014.9
20260503023019 54 75 0.0 0.0 0.00 0.00 0.00 98 1014.8
20260503022515 54 79 0.0 0.0 0.00 0.00 0.00 98 1014.9
20260503022009 54 79 0.0 0.0 0.00 0.00 0.00 98 1014.8
20260503021506 54 82 0.0 0.0 0.00 0.00 0.00 98 1014.6
20260503021003 55 78 0.0 0.0 0.00 0.00 0.00 98 1014.9
20260503020501 55 74 0.0 0.0 0.00 0.00 0.00 98 1014.8
20260503015957 55 72 0.0 0.0 0.00 0.00 0.00 98 1014.8
20260503015454 55 73 0.0 0.0 0.00 0.00 0.00 98 1014.6
20260503014950 55 73 0.0 0.0 0.00 0.00 0.00 98 1014.3
20260503014447 55 73 0.0 0.0 0.00 0.00 0.00 98 1014.4
20260503013945 55 73 0.0 0.0 0.00 0.00 0.00 98 1014.3
20260503013442 55 73 0.0 0.0 0.00 0.00 0.00 98 1014.1
20260503012939 55 73 0.0 0.0 0.00 0.00 0.00 98 1014.2
20260503012437 55 73 0.0 0.0 0.00 0.00 0.00 98 1014.1
20260503011933 55 73 0.0 0.0 0.00 0.00 0.00 98 1014.1
20260503011430 55 73 0.0 0.0 0.00 0.00 0.00 98 1013.8
20260503010927 55 73 0.0 0.0 0.00 0.00 0.00 98 1013.9
20260503010424 55 74 0.0 0.0 0.00 0.00 0.00 98 1013.7
20260503005921 55 74 0.0 0.0 0.00 0.00 0.00 98 1014.0
20260503005418 55 76 0.0 0.0 0.00 0.00 0.00 98 1013.9
20260503004915 55 76 0.0 0.0 0.00 0.00 0.00 98 1014.2
20260503004412 55 77 0.0 0.0 0.00 0.00 0.00 98 1014.1
20260503003909 55 78 0.0 0.0 0.00 0.00 0.00 98 1013.9
20260503003406 55 69 0.0 1.0 0.00 0.00 0.00 98 1013.9
20260503002903 55 72 1.0 1.0 0.00 0.00 0.00 98 1013.7
20260503002400 55 69 0.0 1.0 0.00 0.00 0.00 98 1013.5
20260503001856 55 76 0.0 0.0 0.00 0.00 0.00 98 1013.5
20260503001353 55 76 0.0 0.0 0.00 0.00 0.00 98 1013.5
20260503000851 55 67 1.0 1.0 0.00 0.00 0.00 98 1013.3
20260503000348 56 78 0.0 0.0 0.00 0.00 0.00 98 1013.2
20260502235844 55 75 0.0 0.0 0.00 0.00 0.00 98 1013.4
20260502235342 55 64 1.0 2.0 0.00 0.00 0.00 98 1013.0
20260502234838 55 69 0.0 1.0 0.00 0.00 0.00 98 1013.1
20260502234335 56 83 0.0 0.0 0.00 0.00 0.00 98 1013.0
20260502233832 56 75 0.0 1.0 0.00 0.00 0.00 98 1013.1
20260502233328 56 72 0.0 1.0 0.00 0.00 0.00 98 1012.9
20260502232825 56 84 0.0 0.0 0.00 0.00 0.00 98 1012.6
20260502232321 56 70 1.0 1.0 0.00 0.00 0.00 98 1012.9
20260502231818 56 75 0.0 0.0 0.00 0.00 0.00 98 1012.8
20260502231316 56 44 2.0 2.0 0.00 0.00 0.00 98 1012.7
20260502230814 56 85 0.0 0.0 0.00 0.00 0.00 98 1012.5
20260502230312 56 69 1.0 1.0 0.00 0.00 0.00 98 1012.5
20260502225808 56 69 1.0 2.0 0.00 0.00 0.00 98 1012.4
20260502225305 56 68 1.0 1.0 0.00 0.00 0.00 98 1012.4
20260502224802 56 74 0.0 0.0 0.00 0.00 0.00 98 1012.8
20260502224258 56 71 0.0 0.0 0.00 0.00 0.00 98 1012.6
20260502223756 56 70 0.0 0.0 0.00 0.00 0.00 98 1012.5
20260502223254 56 81 0.0 1.0 0.00 0.00 0.00 98 1012.4
20260502222751 56 75 0.0 0.0 0.00 0.00 0.00 99 1012.5
20260502222248 56 71 1.0 1.0 0.00 0.00 0.00 99 1012.6
20260502221743 56 89 0.0 0.0 0.00 0.00 0.00 99 1012.5
20260502221240 56 78 1.0 1.0 0.00 0.00 0.00 99 1012.4
20260502220737 56 43 1.0 2.0 0.00 0.00 0.00 99 1012.4
20260502220233 56 71 1.0 1.0 0.00 0.00 0.00 99 1012.7
20260502215730 57 78 2.0 2.0 0.00 0.00 0.00 99 1012.2
20260502215227 56 48 2.0 3.0 0.00 0.00 0.00 99 1012.4
20260502214724 57 57 2.0 2.0 0.00 0.00 0.00 99 1012.2
20260502214221 57 82 1.0 1.0 0.00 0.00 0.00 99 1012.2
20260502213718 57 72 1.0 2.0 0.00 0.00 0.00 99 1012.0
20260502213216 57 79 0.0 1.0 0.00 0.00 0.00 99 1012.0
20260502212714 57 76 0.0 0.0 0.00 0.00 0.00 99 1011.7
20260502212212 57 71 1.0 1.0 0.00 0.00 0.00 99 1011.7